• In United Kingdom
  • List of Countries
  • For 7 days
  • Water Temperature
  • Satellite Maps
  • Weather Map
  • Weather Widgets
  • user-avatar
    Login

    Hourly Weather Darwin

    Today, 26 June, Monday

    Time Temperature Precipitation Wind Pressure Humidity
    00:00 +20°C° 0 mm 2 mps 759 mmHg 89%
    01:00 +20°C° 0 mm 2 mps 759 mmHg 87%
    02:00 +20°C° 0 mm 2 mps 759 mmHg 85%
    03:00 +21°C° 0 mm 3 mps 759 mmHg 84%
    04:00 +20°C° 0 mm 3 mps 759 mmHg 83%
    05:00 +20°C° 0 mm 3 mps 759 mmHg 82%
    06:00 +20°C° 0 mm 3 mps 760 mmHg 81%
    07:00 +22°C° 0 mm 3 mps 760 mmHg 74%
    08:00 +25°C° 0 mm 3 mps 760 mmHg 68%
    09:00 +27°C° 0 mm 4 mps 760 mmHg 59%
    10:00 +28°C° 0 mm 4 mps 760 mmHg 52%
    11:00 +30°C° 0 mm 4 mps 760 mmHg 45%
    12:00 +33°C° 0 mm 4 mps 760 mmHg 38%
    13:00 +34°C° 0 mm 4 mps 759 mmHg 36%
    14:00 +34°C° 0 mm 4 mps 759 mmHg 34%
    15:00 +35°C° 0 mm 3 mps 758 mmHg 31%
    16:00 +33°C° 0 mm 3 mps 758 mmHg 38%
    17:00 +30°C° 0 mm 3 mps 758 mmHg 46%
    18:00 +28°C° 0 mm 4 mps 758 mmHg 53%
    19:00 +26°C° 0 mm 3 mps 759 mmHg 61%
    20:00 +24°C° 0 mm 2 mps 759 mmHg 70%
    21:00 +21°C° 0 mm 2 mps 760 mmHg 77%
    22:00 +21°C° 0 mm 2 mps 760 mmHg 77%
    23:00 +21°C° 0 mm 2 mps 760 mmHg 78%

    Tomorrow, 27 June, Tuesday

    Time Temperature Precipitation Wind Pressure Humidity
    00:00 +21°C° 0 mm 2 mps 760 mmHg 79%
    01:00 +21°C° 0 mm 2 mps 760 mmHg 80%
    02:00 +21°C° 0 mm 2 mps 760 mmHg 81%
    03:00 +20°C° 0 mm 2 mps 760 mmHg 83%
    04:00 +20°C° 0 mm 2 mps 760 mmHg 81%
    05:00 +20°C° 0 mm 3 mps 760 mmHg 79%
    06:00 +20°C° 0 mm 3 mps 760 mmHg 78%
    07:00 +22°C° 0 mm 3 mps 760 mmHg 71%
    08:00 +25°C° 0 mm 3 mps 760 mmHg 65%
    09:00 +26°C° 0 mm 4 mps 760 mmHg 59%
    10:00 +28°C° 0 mm 3 mps 760 mmHg 53%
    11:00 +30°C° 0 mm 3 mps 760 mmHg 47%
    12:00 +33°C° 0 mm 3 mps 760 mmHg 41%
    13:00 +34°C° 0 mm 2 mps 759 mmHg 39%
    14:00 +35°C° 0 mm 2 mps 759 mmHg 38%
    15:00 +35°C° 0 mm 2 mps 758 mmHg 36%
    16:00 +32°C° 0 mm 2 mps 758 mmHg 44%
    17:00 +30°C° 0 mm 3 mps 758 mmHg 52%
    18:00 +27°C° 0 mm 3 mps 758 mmHg 60%
    19:00 +26°C° 0 mm 2 mps 759 mmHg 68%
    20:00 +24°C° 0 mm 2 mps 759 mmHg 76%
    21:00 +23°C° 0 mm 1 mps 759 mmHg 83%
    22:00 +23°C° 0 mm 1 mps 759 mmHg 85%
    23:00 +22°C° 0 mm 1 mps 760 mmHg 86%

    Day after tomorrow, 28 June, Wednesday

    Time Temperature Precipitation Wind Pressure Humidity
    00:00 +22°C° 0 mm 1 mps 760 mmHg 88%
    01:00 +22°C° 0 mm 1 mps 759 mmHg 87%
    02:00 +22°C° 0 mm 1 mps 759 mmHg 86%
    03:00 +21°C° 0 mm 2 mps 759 mmHg 85%
    04:00 +21°C° 0 mm 2 mps 759 mmHg 84%
    05:00 +21°C° 0 mm 2 mps 759 mmHg 84%
    06:00 +21°C° 0 mm 3 mps 759 mmHg 83%
    07:00 +24°C° 0 mm 3 mps 759 mmHg 77%
    08:00 +26°C° 0 mm 3 mps 760 mmHg 71%
    09:00 +27°C° 0 mm 4 mps 760 mmHg 65%
    10:00 +29°C° 0 mm 4 mps 760 mmHg 58%
    11:00 +31°C° 0 mm 3 mps 760 mmHg 52%
    12:00 +34°C° 0 mm 3 mps 759 mmHg 45%
    13:00 +34°C° 0 mm 3 mps 759 mmHg 43%
    14:00 +35°C° 0 mm 3 mps 758 mmHg 42%
    15:00 +35°C° 0 mm 3 mps 758 mmHg 40%
    16:00 +33°C° 0 mm 3 mps 758 mmHg 47%
    17:00 +30°C° 0 mm 3 mps 758 mmHg 54%
    18:00 +28°C° 0 mm 3 mps 758 mmHg 61%
    19:00 +27°C° 0 mm 2 mps 759 mmHg 68%
    20:00 +26°C° 0 mm 2 mps 759 mmHg 74%
    21:00 +24°C° 0 mm 1 mps 760 mmHg 80%
    22:00 +24°C° 0 mm 1 mps 760 mmHg 81%
    23:00 +24°C° 0 mm 2 mps 760 mmHg 81%

    29 June, Thursday

    Time Temperature Precipitation Wind Pressure Humidity
    00:00 +24°C° 0 mm 2 mps 760 mmHg 81%
    01:00 +24°C° 0 mm 2 mps 760 mmHg 80%
    02:00 +24°C° 0 mm 2 mps 760 mmHg 79%
    03:00 +24°C° 0 mm 2 mps 760 mmHg 78%
    04:00 +22°C° 0 mm 3 mps 760 mmHg 75%
    05:00 +22°C° 0 mm 3 mps 760 mmHg 73%
    06:00 +22°C° 0 mm 4 mps 760 mmHg 71%
    07:00 +23°C° 0 mm 4 mps 760 mmHg 68%
    08:00 +26°C° 0 mm 4 mps 760 mmHg 66%
    09:00 +27°C° 0 mm 4 mps 761 mmHg 63%
    10:00 +30°C° 0 mm 4 mps 760 mmHg 54%
    11:00 +33°C° 0 mm 4 mps 760 mmHg 44%
    12:00 +35°C° 0 mm 4 mps 760 mmHg 34%
    13:00 +35°C° 0 mm 4 mps 759 mmHg 33%
    14:00 +36°C° 0 mm 3 mps 758 mmHg 32%
    15:00 +36°C° 0 mm 3 mps 758 mmHg 30%
    16:00 +34°C° 0 mm 3 mps 758 mmHg 38%
    17:00 +31°C° 0 mm 2 mps 758 mmHg 45%
    18:00 +28°C° 0 mm 2 mps 758 mmHg 53%
    19:00 +28°C° 0 mm 2 mps 759 mmHg 52%
    20:00 +28°C° 0 mm 3 mps 760 mmHg 51%
    21:00 +28°C° 0 mm 3 mps 760 mmHg 50%
    22:00 +28°C° 0 mm 4 mps 760 mmHg 49%
    23:00 +27°C° 0 mm 5 mps 760 mmHg 49%

    30 June, Friday

    Time Temperature Precipitation Wind Pressure Humidity
    00:00 +27°C° 0 mm 6 mps 760 mmHg 49%
    01:00 +26°C° 0 mm 6 mps 760 mmHg 50%
    02:00 +26°C° 0 mm 7 mps 760 mmHg 51%
    03:00 +24°C° 0 mm 7 mps 759 mmHg 53%
    04:00 +23°C° 0 mm 7 mps 760 mmHg 52%
    05:00 +23°C° 0 mm 8 mps 760 mmHg 51%
    06:00 +23°C° 0 mm 8 mps 760 mmHg 50%
    07:00 +23°C° 0 mm 8 mps 761 mmHg 48%
    08:00 +24°C° 0 mm 8 mps 761 mmHg 46%
    09:00 +26°C° 0 mm 8 mps 762 mmHg 44%
    10:00 +28°C° 0 mm 7 mps 761 mmHg 41%
    11:00 +29°C° 0 mm 7 mps 761 mmHg 38%
    12:00 +32°C° 0 mm 6 mps 760 mmHg 35%
    13:00 +33°C° 0 mm 5 mps 759 mmHg 33%
    14:00 +33°C° 0 mm 5 mps 759 mmHg 32%
    15:00 +34°C° 0 mm 4 mps 758 mmHg 31%
    16:00 +32°C° 0 mm 4 mps 758 mmHg 34%
    17:00 +30°C° 0 mm 3 mps 759 mmHg 37%
    18:00 +28°C° 0 mm 3 mps 759 mmHg 40%
    19:00 +27°C° 0 mm 3 mps 759 mmHg 40%
    20:00 +26°C° 0 mm 4 mps 760 mmHg 40%
    21:00 +25°C° 0 mm 5 mps 760 mmHg 40%
    22:00 +25°C° 0 mm 5 mps 760 mmHg 40%
    23:00 +23°C° 0 mm 6 mps 760 mmHg 40%

    1 July, Saturday

    Time Temperature Precipitation Wind Pressure Humidity
    00:00 +23°C° 0 mm 6 mps 760 mmHg 41%
    01:00 +22°C° 0 mm 6 mps 760 mmHg 41%
    02:00 +22°C° 0 mm 6 mps 760 mmHg 41%
    03:00 +21°C° 0 mm 6 mps 759 mmHg 41%
    04:00 +21°C° 0 mm 6 mps 760 mmHg 40%
    05:00 +21°C° 0 mm 6 mps 760 mmHg 40%
    06:00 +21°C° 0 mm 6 mps 760 mmHg 39%
    07:00 +22°C° 0 mm 6 mps 760 mmHg 38%
    08:00 +23°C° 0 mm 6 mps 761 mmHg 36%
    09:00 +24°C° 0 mm 6 mps 761 mmHg 34%
    10:00 +27°C° 0 mm 6 mps 761 mmHg 34%
    11:00 +29°C° 0 mm 5 mps 760 mmHg 33%
    12:00 +33°C° 0 mm 4 mps 760 mmHg 33%
    13:00 +33°C° 0 mm 4 mps 759 mmHg 33%
    14:00 +34°C° 0 mm 3 mps 758 mmHg 34%
    15:00 +35°C° 0 mm 2 mps 757 mmHg 34%
    16:00 +33°C° 0 mm 3 mps 758 mmHg 41%
    17:00 +30°C° 0 mm 3 mps 758 mmHg 48%
    18:00 +28°C° 0 mm 3 mps 758 mmHg 55%
    19:00 +27°C° 0 mm 3 mps 759 mmHg 59%
    20:00 +26°C° 0 mm 2 mps 760 mmHg 62%
    21:00 +25°C° 0 mm 2 mps 760 mmHg 66%
    22:00 +25°C° 0 mm 2 mps 760 mmHg 64%
    23:00 +26°C° 0 mm 3 mps 760 mmHg 61%
    Show more